This demonstration page uses our WeatherBlox Daily Observations layout. Learn more.

Left ArrowRight Arrow

Hourly Observations for November 28, 2015

Temp ( °F °C ) Dew Point ( °F °C ) Humidity (%) Winds ( mph kmh ) Pressure ( in mb ) Visibility ( mi km ) Precip ( " mm )
12:53 am 00:53 Clear 10 -12.2 3 -16.1 73 73 SW 16 26 30.53 1034 10 16 0.00 0.00
1:53 am 01:53 Clear 10 -12.2 4 -15.6 76 76 WSW 10 17 30.43 1030 10 16 0.00 0.00
2:53 am 02:53 Clear 9 -12.8 3 -16.1 77 77 SW 13 20 30.43 1030 10 16 0.00 0.00
3:53 am 03:53 Clear 9 -12.8 4 -15.6 80 80 SW 18 30 30.42 1030 10 16 0.00 0.00
4:53 am 04:53 Clear 7 -13.9 2 -16.7 80 80 SW 12 19 30.45 1031 10 16 0.00 0.00
5:53 am 05:53 Clear 4 -15.6 0 -17.8 83 83 WSW 9 15 30.45 1031 10 16 0.00 0.00
6:53 am 06:53 Clear 6 -14.4 1 -17.2 79 79 WSW 10 17 30.45 1031 10 16 0.00 0.00
7:53 am 07:53 Sunny 4 -15.6 0 -17.8 83 83 W 6 9 30.47 1032 10 16 0.00 0.00
8:53 am 08:53 Sunny 7 -13.9 2 -16.7 80 80 WSW 9 15 30.46 1032 10 16 0.00 0.00
9:53 am 09:53 Sunny 13 -10.6 6 -14.4 74 74 WSW 10 17 30.45 1031 10 16 0.00 0.00
10:53 am 10:53 Sunny 16 -8.9 8 -13.3 71 71 SW 15 24 30.44 1031 10 16 0.00 0.00
11:53 am 11:53 Sunny 19 -7.2 11 -11.7 71 71 SW 12 19 30.42 1030 10 16 0.00 0.00
12:53 pm 12:53 Sunny 21 -6.1 12 -11.1 68 68 SW 13 20 30.40 1030 10 16 0.00 0.00
1:53 pm 13:53 Sunny 22 -5.6 14 -10 71 71 WSW 10 17 30.39 1029 10 16 0.00 0.00
2:53 pm 14:53 Sunny 22 -5.6 14 -10 71 71 WSW 9 15 30.37 1029 10 16 0.00 0.00
3:53 pm 15:53 Sunny 20 -6.7 12 -11.1 71 71 SW 7 11 30.38 1029 10 16 0.00 0.00
4:53 pm 16:53 Clear 15 -9.4 9 -12.8 77 77 SW 6 9 30.39 1029 10 16 0.00 0.00
5:53 pm 17:53 Clear 13 -10.6 8 -13.3 81 81 WNW 3 6 30.38 1029 10 16 0.00 0.00
6:53 pm 18:53 Clear 11 -11.7 7 -13.9 84 84 WNW 5 7 30.39 1029 10 16 0.00 0.00
7:53 pm 19:53 Clear 8 -13.3 5 -15 87 87 W 6 9 30.40 1029 10 16 0.00 0.00
8:53 pm 20:53 Clear 7 -13.9 4 -15.6 87 87 W 6 9 30.39 1029 10 16 0.00 0.00
9:53 pm 21:53 Clear 6 -14.4 3 -16.1 87 87 W 7 11 30.39 1029 10 16 0.00 0.00
10:53 pm 22:53 Clear 3 -16.1 0 -17.8 87 87 WSW 7 11 30.39 1029 10 16 0.00 0.00
11:53 pm 23:53 Clear 4 -15.6 1 -17.2 88 88 WSW 8 13 30.37 1028 10 16 0.00 0.00

Powered by AerisWeather